FENGYUN 1C DEB

Satellite information

Favourite Embed

Satellite Type and Status

DEBRISIN ORBIT

Key statistics

Satellite FENGYUN 1C DEB at a glance.

Uptime

9554

Days in orbit

Revolutions

≈ 14.2

Per day

Orbit

SSO

Sun Synchronous Orbit

Inclination

98.8

Latest

Satellite identification and parameters

Extended collection of information and parameters for FENGYUN 1C DEB.

Object identification

Identified? True

Debris? True

Object name: FENGYUN 1C DEB

International designator: 1999-025EAD

Object number (NORAD): 36707

Object ID (CCSDS): 36707

Country: PEOPLES REPUBLIC OF CHINA (PRC)

Current information (Y/N): Y

RCS size: SMALL

Orbital parameters

Period: 101.645 minutes

Inclination: 98.7676 deg

SMA: 7214.695 km

Apoapsis: 871.646 km

Periapsis: 801.474 km

RAAN: 233.8757 deg

Eccentricy: 0.0048631

Argument of periapsis: 221.4383 deg

Mean anomaly: 138.31 deg

Mean motion: 14.16693126 rev/day

Mean motion (dot): 0.00001115 rev/day2

B* drag term: 0.00057316 1/REarth

Two-line elements (TLE)

Creation date: July 4, 2025, 6:39 p.m.

Reference frame: TEME

Reference center: EARTH

Epoch: July 4, 2025, 8:44 a.m. UTC

TLE line 0: 0 FENGYUN 1C DEB

TLE line 1: 1 36707U 99025EAD 25185.36399860 .00001115 00000-0 57316-3 0 9996

TLE line 2: 2 36707 98.7676 233.8757 0048631 221.4383 138.3100 14.16693126617940

Live tracking on map

Real-time ground track for satellite FENGYUN 1C DEB.

In-orbit conjunctions

A list of the most updated potential collisions computed for object FENGYUN 1C DEB.

Target Orbit TCA Probability of collision Miss distance Type
METEOR 2-5 LEO 2024-09-19 08:42:36 0.0001064247 283.0 (m) PAYLOAD
DELTA 4 DEB SSO 2024-06-24 16:13:26 0.0003001341 160.0 (m) DEBRIS

Associated space launch

Chinese polar orbiting meteorological satellite

FENGYUN 1C DEB was lifted into orbit during the mission ‘Long March 4B | Feng Yun 1C’, on board a Long March 4B space rocket.

The launch took place on May 10, 1999, 1:33 a.m. from Launch Complex 7.

For more information about the launch, click the button.

Launch to space Long March 4B | Feng Yun 1C
Long March 4B | Feng Yun 1C

Agency: N/A

Status: Launch Successful

Launch date: May 10, 1999, 1:33 a.m. UTC

Rocket: Long March 4B

Launch pad: Launch Complex 7

Location: Taiyuan Satellite Launch Center, People's Republic of China

...

Latest news about this satellite

There are no fresh news available about this satellite. Check back as we update our databases every day.


Newsletter sign-up

Weekly statistics, charts and insights to help you stay on top of the space industry.